Year,Month,Day,Hour,Minute,Value (Times are PST for temperature in C)
2016,04,30,00,00,6.80
2016,04,30,00,01,6.80
2016,04,30,00,02,6.80
2016,04,30,00,03,6.80
2016,04,30,00,04,6.80
2016,04,30,00,05,6.80
2016,04,30,00,06,6.70
2016,04,30,00,07,6.70
2016,04,30,00,08,6.70
2016,04,30,00,09,6.70
2016,04,30,00,10,6.70
2016,04,30,00,11,6.80
2016,04,30,00,12,6.80
2016,04,30,00,13,6.80
2016,04,30,00,14,6.80
2016,04,30,00,15,6.80
2016,04,30,00,16,6.80
2016,04,30,00,17,6.70
2016,04,30,00,18,6.70
2016,04,30,00,19,6.70
2016,04,30,00,20,6.70
2016,04,30,00,21,6.70
2016,04,30,00,22,6.70
2016,04,30,00,23,6.70
2016,04,30,00,24,6.70
2016,04,30,00,25,6.60
2016,04,30,00,26,6.70
2016,04,30,00,27,6.60
2016,04,30,00,28,6.60
2016,04,30,00,29,6.60
2016,04,30,00,30,6.60
2016,04,30,00,31,6.50
2016,04,30,00,32,6.50
2016,04,30,00,33,6.50
2016,04,30,00,34,6.50
2016,04,30,00,35,6.50
2016,04,30,00,36,6.50
2016,04,30,00,37,6.50
2016,04,30,00,38,6.50
2016,04,30,00,39,6.50
2016,04,30,00,40,6.50
2016,04,30,00,41,6.50
2016,04,30,00,42,6.40
2016,04,30,00,43,6.40
2016,04,30,00,44,6.50
2016,04,30,00,45,6.50
2016,04,30,00,46,6.50
2016,04,30,00,47,6.50
2016,04,30,00,48,6.50
2016,04,30,00,49,6.50
2016,04,30,00,50,6.60
2016,04,30,00,51,6.60
2016,04,30,00,52,6.60
2016,04,30,00,53,6.60
2016,04,30,00,54,6.60
2016,04,30,00,55,6.60
2016,04,30,00,56,6.70
2016,04,30,00,57,6.70
2016,04,30,00,58,6.70
2016,04,30,00,59,6.70
2016,04,30,01,00,6.70
2016,04,30,01,01,6.60
2016,04,30,01,02,6.60
2016,04,30,01,03,6.60
2016,04,30,01,04,6.50
2016,04,30,01,05,6.50
2016,04,30,01,06,6.40
2016,04,30,01,07,6.40
2016,04,30,01,08,6.40
2016,04,30,01,09,6.40
2016,04,30,01,10,6.40
2016,04,30,01,11,6.30
2016,04,30,01,12,6.30
2016,04,30,01,13,6.30
2016,04,30,01,14,6.30
2016,04,30,01,15,6.30
2016,04,30,01,16,6.30
2016,04,30,01,17,6.30
2016,04,30,01,18,6.30
2016,04,30,01,19,6.30
2016,04,30,01,20,6.40
2016,04,30,01,21,6.40
2016,04,30,01,22,6.40
2016,04,30,01,23,6.40
2016,04,30,01,24,6.40
2016,04,30,01,25,6.40
2016,04,30,01,26,6.50
2016,04,30,01,27,6.50
2016,04,30,01,28,6.50
2016,04,30,01,29,6.50
2016,04,30,01,30,6.50
2016,04,30,01,31,6.40
2016,04,30,01,32,6.40
2016,04,30,01,33,6.40
2016,04,30,01,34,6.40
2016,04,30,01,35,6.40
2016,04,30,01,36,6.40
2016,04,30,01,37,6.40
2016,04,30,01,38,6.40
2016,04,30,01,39,6.30
2016,04,30,01,40,6.30
2016,04,30,01,41,6.30
2016,04,30,01,42,6.30
2016,04,30,01,43,6.30
2016,04,30,01,44,6.30
2016,04,30,01,45,6.30
2016,04,30,01,46,6.20
2016,04,30,01,47,6.20
2016,04,30,01,48,6.20
2016,04,30,01,49,6.10
2016,04,30,01,50,6.10
2016,04,30,01,51,6.10
2016,04,30,01,52,6.10
2016,04,30,01,53,6.10
2016,04,30,01,54,6.10
2016,04,30,01,55,6.10
2016,04,30,01,56,6.10
2016,04,30,01,57,6.10
2016,04,30,01,58,6.10
2016,04,30,01,59,6.10
2016,04,30,02,00,6.10
2016,04,30,02,01,6.10
2016,04,30,02,02,6.10
2016,04,30,02,03,6.10
2016,04,30,02,04,6.10
2016,04,30,02,05,6.10
2016,04,30,02,06,6.10
2016,04,30,02,07,6.10
2016,04,30,02,08,6.10
2016,04,30,02,09,6.10
2016,04,30,02,10,6.10
2016,04,30,02,11,6.00
2016,04,30,02,12,6.00
2016,04,30,02,13,6.00
2016,04,30,02,14,6.10
2016,04,30,02,15,6.10
2016,04,30,02,16,6.20
2016,04,30,02,17,6.30
2016,04,30,02,18,6.30
2016,04,30,02,19,6.30
2016,04,30,02,20,6.30
2016,04,30,02,21,6.20
2016,04,30,02,22,6.20
2016,04,30,02,23,6.20
2016,04,30,02,24,6.20
2016,04,30,02,25,6.20
2016,04,30,02,26,6.20
2016,04,30,02,27,6.20
2016,04,30,02,28,6.20
2016,04,30,02,29,6.20
2016,04,30,02,30,6.20
2016,04,30,02,31,6.10
2016,04,30,02,32,6.10
2016,04,30,02,33,6.10
2016,04,30,02,34,6.10
2016,04,30,02,35,6.10
2016,04,30,02,36,6.10
2016,04,30,02,37,6.10
2016,04,30,02,38,6.10
2016,04,30,02,39,6.10
2016,04,30,02,40,6.00
2016,04,30,02,41,6.00
2016,04,30,02,42,6.00
2016,04,30,02,43,6.00
2016,04,30,02,44,6.00
2016,04,30,02,45,6.00
2016,04,30,02,46,6.00
2016,04,30,02,47,6.00
2016,04,30,02,48,6.00
2016,04,30,02,49,6.00
2016,04,30,02,50,6.00
2016,04,30,02,51,6.00
2016,04,30,02,52,6.00
2016,04,30,02,53,6.00
2016,04,30,02,54,6.00
2016,04,30,02,55,5.90
2016,04,30,02,56,5.90
2016,04,30,02,57,5.90
2016,04,30,02,58,5.90
2016,04,30,02,59,5.90
2016,04,30,03,00,5.90
2016,04,30,03,01,5.80
2016,04,30,03,02,5.90
2016,04,30,03,03,5.90
2016,04,30,03,04,5.90
2016,04,30,03,05,5.90
2016,04,30,03,06,5.80
2016,04,30,03,07,5.80
2016,04,30,03,08,5.80
2016,04,30,03,09,5.80
2016,04,30,03,10,5.80
2016,04,30,03,11,5.80
2016,04,30,03,12,5.80
2016,04,30,03,13,5.80
2016,04,30,03,14,5.80
2016,04,30,03,15,5.80
2016,04,30,03,16,5.80
2016,04,30,03,17,5.80
2016,04,30,03,18,5.80
2016,04,30,03,19,5.80
2016,04,30,03,20,5.80
2016,04,30,03,21,5.80
2016,04,30,03,22,5.80
2016,04,30,03,23,5.80
2016,04,30,03,24,5.70
2016,04,30,03,25,5.70
2016,04,30,03,26,5.60
2016,04,30,03,27,5.60
2016,04,30,03,28,5.70
2016,04,30,03,29,5.70
2016,04,30,03,30,5.70
2016,04,30,03,31,5.70
2016,04,30,03,32,5.80
2016,04,30,03,33,5.80
2016,04,30,03,34,5.90
2016,04,30,03,35,5.90
2016,04,30,03,36,5.90
2016,04,30,03,37,5.90
2016,04,30,03,38,5.90
2016,04,30,03,39,5.90
2016,04,30,03,40,5.90
2016,04,30,03,41,5.80
2016,04,30,03,42,5.80
2016,04,30,03,43,5.80
2016,04,30,03,44,5.80
2016,04,30,03,45,5.80
2016,04,30,03,46,5.80
2016,04,30,03,47,5.80
2016,04,30,03,48,5.80
2016,04,30,03,49,5.80
2016,04,30,03,50,5.80
2016,04,30,03,51,5.80
2016,04,30,03,52,5.80
2016,04,30,03,53,5.80
2016,04,30,03,54,5.80
2016,04,30,03,55,5.80
2016,04,30,03,56,5.80
2016,04,30,03,57,5.80
2016,04,30,03,58,5.80
2016,04,30,03,59,5.80
2016,04,30,04,00,5.70
2016,04,30,04,01,5.70
2016,04,30,04,02,5.80
2016,04,30,04,03,5.80
2016,04,30,04,04,5.80
2016,04,30,04,05,5.80
2016,04,30,04,06,5.80
2016,04,30,04,07,5.80
2016,04,30,04,08,5.80
2016,04,30,04,09,5.80
2016,04,30,04,10,5.80
2016,04,30,04,11,5.80
2016,04,30,04,12,5.80
2016,04,30,04,13,5.80
2016,04,30,04,14,5.70
2016,04,30,04,15,5.70
2016,04,30,04,16,5.70
2016,04,30,04,17,5.70
2016,04,30,04,18,5.70
2016,04,30,04,19,5.70
2016,04,30,04,20,5.70
2016,04,30,04,21,5.70
2016,04,30,04,22,5.70
2016,04,30,04,23,5.70
2016,04,30,04,24,5.70
2016,04,30,04,25,5.70
2016,04,30,04,26,5.70
2016,04,30,04,27,5.70
2016,04,30,04,28,5.70
2016,04,30,04,29,5.70
2016,04,30,04,30,5.70
2016,04,30,04,31,5.70
2016,04,30,04,32,5.70
2016,04,30,04,33,5.60
2016,04,30,04,34,5.60
2016,04,30,04,35,5.60
2016,04,30,04,36,5.60
2016,04,30,04,37,5.60
2016,04,30,04,38,5.60
2016,04,30,04,39,5.60
2016,04,30,04,40,5.60
2016,04,30,04,41,5.60
2016,04,30,04,42,5.60
2016,04,30,04,43,5.60
2016,04,30,04,44,5.60
2016,04,30,04,45,5.60
2016,04,30,04,46,5.60
2016,04,30,04,47,5.60
2016,04,30,04,48,5.60
2016,04,30,04,49,5.60
2016,04,30,04,50,5.60
2016,04,30,04,51,5.50
2016,04,30,04,52,5.50
2016,04,30,04,53,5.40
2016,04,30,04,54,5.40
2016,04,30,04,55,5.40
2016,04,30,04,56,5.50
2016,04,30,04,57,5.50
2016,04,30,04,58,5.50
2016,04,30,04,59,5.50
2016,04,30,05,00,5.50
2016,04,30,05,01,5.50
2016,04,30,05,02,5.50
2016,04,30,05,03,5.50
2016,04,30,05,04,5.50
2016,04,30,05,05,5.50
2016,04,30,05,06,5.50
2016,04,30,05,07,5.50
2016,04,30,05,08,5.50
2016,04,30,05,09,5.50
2016,04,30,05,10,5.50
2016,04,30,05,11,5.50
2016,04,30,05,12,5.50
2016,04,30,05,13,5.50
2016,04,30,05,14,5.50
2016,04,30,05,15,5.40
2016,04,30,05,16,5.40
2016,04,30,05,17,5.30
2016,04,30,05,18,5.30
2016,04,30,05,19,5.30
2016,04,30,05,20,5.30
2016,04,30,05,21,5.30
2016,04,30,05,22,5.30
2016,04,30,05,23,5.30
2016,04,30,05,24,5.30
2016,04,30,05,25,5.30
2016,04,30,05,26,5.30
2016,04,30,05,27,5.30
2016,04,30,05,28,5.30
2016,04,30,05,29,5.30
2016,04,30,05,30,5.30
2016,04,30,05,31,5.30
2016,04,30,05,32,5.30
2016,04,30,05,33,5.30
2016,04,30,05,34,5.30
2016,04,30,05,35,5.30
2016,04,30,05,36,5.30
2016,04,30,05,37,5.30
2016,04,30,05,38,5.30
2016,04,30,05,39,5.30
2016,04,30,05,40,5.30
2016,04,30,05,41,5.30
2016,04,30,05,42,5.20
2016,04,30,05,43,5.20
2016,04,30,05,44,5.20
2016,04,30,05,45,5.20
2016,04,30,05,46,5.20
2016,04,30,05,47,5.20
2016,04,30,05,48,5.20
2016,04,30,05,49,5.20
2016,04,30,05,50,5.20
2016,04,30,05,51,5.30
2016,04,30,05,52,5.30
2016,04,30,05,53,5.30
2016,04,30,05,54,5.30
2016,04,30,05,55,5.30
2016,04,30,05,56,5.30
2016,04,30,05,57,5.30
2016,04,30,05,58,5.30
2016,04,30,05,59,5.30
2016,04,30,06,00,5.30
2016,04,30,06,01,5.30
2016,04,30,06,02,5.30
2016,04,30,06,03,5.30
2016,04,30,06,04,5.30
2016,04,30,06,05,5.30
2016,04,30,06,06,5.30
2016,04,30,06,07,5.30
2016,04,30,06,08,5.30
2016,04,30,06,09,5.30
2016,04,30,06,10,5.30
2016,04,30,06,11,5.30
2016,04,30,06,12,5.30
2016,04,30,06,13,5.30
2016,04,30,06,14,5.30
2016,04,30,06,15,5.30
2016,04,30,06,16,5.40
2016,04,30,06,17,5.40
2016,04,30,06,18,5.30
2016,04,30,06,19,5.30
2016,04,30,06,20,5.30
2016,04,30,06,21,5.30
2016,04,30,06,22,5.30
2016,04,30,06,23,5.30
2016,04,30,06,24,5.30
2016,04,30,06,25,5.30
2016,04,30,06,26,5.30
2016,04,30,06,27,5.30
2016,04,30,06,28,5.30
2016,04,30,06,29,5.40
2016,04,30,06,30,5.40
2016,04,30,06,31,5.40
2016,04,30,06,32,5.40
2016,04,30,06,33,5.40
2016,04,30,06,34,5.40
2016,04,30,06,35,5.40
2016,04,30,06,36,5.40
2016,04,30,06,37,5.50
2016,04,30,06,38,5.50
2016,04,30,06,39,5.60
2016,04,30,06,40,5.60
2016,04,30,06,41,5.60
2016,04,30,06,42,5.60
2016,04,30,06,43,5.60
2016,04,30,06,44,5.60
2016,04,30,06,45,5.60
2016,04,30,06,46,5.60
2016,04,30,06,47,5.60
2016,04,30,06,48,5.60
2016,04,30,06,49,5.60
2016,04,30,06,50,5.60
2016,04,30,06,51,5.60
2016,04,30,06,52,5.70
2016,04,30,06,53,5.70
2016,04,30,06,54,5.70
2016,04,30,06,55,5.80
2016,04,30,06,56,5.80
2016,04,30,06,57,5.80
2016,04,30,06,58,5.90
2016,04,30,06,59,5.90
2016,04,30,07,00,5.90
2016,04,30,07,01,5.90
2016,04,30,07,02,5.90
2016,04,30,07,03,5.90
2016,04,30,07,04,5.90
2016,04,30,07,05,6.00
2016,04,30,07,06,6.00
2016,04,30,07,07,6.00
2016,04,30,07,08,6.10
2016,04,30,07,09,6.10
2016,04,30,07,10,6.10
2016,04,30,07,11,6.10
2016,04,30,07,12,6.10
2016,04,30,07,13,6.10
2016,04,30,07,14,6.20
2016,04,30,07,15,6.20
2016,04,30,07,16,6.20
2016,04,30,07,17,6.20
2016,04,30,07,18,6.20
2016,04,30,07,19,6.30
2016,04,30,07,20,6.30
2016,04,30,07,21,6.30
2016,04,30,07,22,6.30
2016,04,30,07,23,6.30
2016,04,30,07,24,6.40
2016,04,30,07,25,6.40
2016,04,30,07,26,6.50
2016,04,30,07,27,6.50
2016,04,30,07,28,6.50
2016,04,30,07,29,6.60
2016,04,30,07,30,6.60
2016,04,30,07,31,6.70
2016,04,30,07,32,6.70
2016,04,30,07,33,6.70
2016,04,30,07,34,6.80
2016,04,30,07,35,6.80
2016,04,30,07,36,6.80
2016,04,30,07,37,6.90
2016,04,30,07,38,6.90
2016,04,30,07,39,7.00
2016,04,30,07,40,7.00
2016,04,30,07,41,7.10
2016,04,30,07,42,7.10
2016,04,30,07,43,7.20
2016,04,30,07,44,7.20
2016,04,30,07,45,7.30
2016,04,30,07,46,7.30
2016,04,30,07,47,7.30
2016,04,30,07,48,7.40
2016,04,30,07,49,7.40
2016,04,30,07,50,7.40
2016,04,30,07,51,7.50
2016,04,30,07,52,7.50
2016,04,30,07,53,7.60
2016,04,30,07,54,7.70
2016,04,30,07,55,7.80
2016,04,30,07,56,7.90
2016,04,30,07,57,8.00
2016,04,30,07,58,8.20
2016,04,30,07,59,8.30
2016,04,30,08,00,8.40
2016,04,30,08,01,8.50
2016,04,30,08,02,8.50
2016,04,30,08,03,8.60
2016,04,30,08,04,8.70
2016,04,30,08,05,8.80
2016,04,30,08,06,8.90
2016,04,30,08,07,9.00
2016,04,30,08,08,9.10
2016,04,30,08,09,9.30
2016,04,30,08,10,9.50
2016,04,30,08,11,9.70
2016,04,30,08,12,9.90
2016,04,30,08,13,10.00
2016,04,30,08,14,10.10
2016,04,30,08,15,10.20
2016,04,30,08,16,10.30
2016,04,30,08,17,10.40
2016,04,30,08,18,10.50
2016,04,30,08,19,10.60
2016,04,30,08,20,10.70
2016,04,30,08,21,10.70
2016,04,30,08,22,10.80
2016,04,30,08,23,10.80
2016,04,30,08,24,10.90
2016,04,30,08,25,10.90
2016,04,30,08,26,11.00
2016,04,30,08,27,11.00
2016,04,30,08,28,11.10
2016,04,30,08,29,11.10
2016,04,30,08,30,11.10
2016,04,30,08,31,11.20
2016,04,30,08,32,11.20
2016,04,30,08,33,11.20
2016,04,30,08,34,11.20
2016,04,30,08,35,11.30
2016,04,30,08,36,11.30
2016,04,30,08,37,11.30
2016,04,30,08,38,11.30
2016,04,30,08,39,11.40
2016,04,30,08,40,11.40
2016,04,30,08,41,11.40
2016,04,30,08,42,11.40
2016,04,30,08,43,11.40
2016,04,30,08,44,11.50
2016,04,30,08,45,11.50
2016,04,30,08,46,11.60
2016,04,30,08,47,11.60
2016,04,30,08,48,11.60
2016,04,30,08,49,11.60
2016,04,30,08,50,11.70
2016,04,30,08,51,11.70
2016,04,30,08,52,11.70
2016,04,30,08,53,11.70
2016,04,30,08,54,11.70
2016,04,30,08,55,11.70
2016,04,30,08,56,11.70
2016,04,30,08,57,11.70
2016,04,30,08,58,11.70
2016,04,30,08,59,11.70
2016,04,30,09,00,11.80
2016,04,30,09,01,11.80
2016,04,30,09,02,11.80
2016,04,30,09,03,11.80
2016,04,30,09,04,11.80
2016,04,30,09,05,11.80
2016,04,30,09,06,11.80
2016,04,30,09,07,11.80
2016,04,30,09,08,11.80
2016,04,30,09,09,11.80
2016,04,30,09,10,11.80
2016,04,30,09,11,11.80
2016,04,30,09,12,11.80
2016,04,30,09,13,11.80
2016,04,30,09,14,11.90
2016,04,30,09,15,11.90
2016,04,30,09,16,11.90
2016,04,30,09,17,11.90
2016,04,30,09,18,11.90
2016,04,30,09,19,11.90
2016,04,30,09,20,11.90
2016,04,30,09,21,12.00
2016,04,30,09,22,12.00
2016,04,30,09,23,12.10
2016,04,30,09,24,12.10
2016,04,30,09,25,12.10
2016,04,30,09,26,12.20
2016,04,30,09,27,12.20
2016,04,30,09,28,12.30
2016,04,30,09,29,12.30
2016,04,30,09,30,12.30
2016,04,30,09,31,12.30
2016,04,30,09,32,12.30
2016,04,30,09,33,12.20
2016,04,30,09,34,12.20
2016,04,30,09,35,12.20
2016,04,30,09,36,12.30
2016,04,30,09,37,12.40
2016,04,30,09,38,12.60
2016,04,30,09,39,12.60
2016,04,30,09,40,12.70
2016,04,30,09,41,12.70
2016,04,30,09,42,12.70
2016,04,30,09,43,12.70
2016,04,30,09,44,12.70
2016,04,30,09,45,12.70
2016,04,30,09,46,12.70
2016,04,30,09,47,12.80
2016,04,30,09,48,12.80
2016,04,30,09,49,12.80
2016,04,30,09,50,12.80
2016,04,30,09,51,12.80
2016,04,30,09,52,12.80
2016,04,30,09,53,12.80
2016,04,30,09,54,12.90
2016,04,30,09,55,12.90
2016,04,30,09,56,12.90
2016,04,30,09,57,12.90
2016,04,30,09,58,12.90
2016,04,30,09,59,12.90
2016,04,30,10,00,12.80
2016,04,30,10,01,12.70
2016,04,30,10,02,12.60
2016,04,30,10,03,12.60
2016,04,30,10,04,12.70
2016,04,30,10,05,12.70
2016,04,30,10,06,12.70
2016,04,30,10,07,12.80
2016,04,30,10,08,12.80
2016,04,30,10,09,12.90
2016,04,30,10,10,12.90
2016,04,30,10,11,13.00
2016,04,30,10,12,13.00
2016,04,30,10,13,13.10
2016,04,30,10,14,13.10
2016,04,30,10,15,13.10
2016,04,30,10,16,13.20
2016,04,30,10,17,13.20
2016,04,30,10,18,13.20
2016,04,30,10,19,13.30
2016,04,30,10,20,13.40
2016,04,30,10,21,13.40
2016,04,30,10,22,13.30
2016,04,30,10,23,13.20
2016,04,30,10,24,13.10
2016,04,30,10,25,13.10
2016,04,30,10,26,13.00
2016,04,30,10,27,13.00
2016,04,30,10,28,12.90
2016,04,30,10,29,12.90
2016,04,30,10,30,12.80
2016,04,30,10,31,12.80
2016,04,30,10,32,12.80
2016,04,30,10,33,12.80
2016,04,30,10,34,12.90
2016,04,30,10,35,12.90
2016,04,30,10,36,13.00
2016,04,30,10,37,13.10
2016,04,30,10,38,13.20
2016,04,30,10,39,13.30
2016,04,30,10,40,13.30
2016,04,30,10,41,13.30
2016,04,30,10,42,13.40
2016,04,30,10,43,13.40
2016,04,30,10,44,13.40
2016,04,30,10,45,13.40
2016,04,30,10,46,13.50
2016,04,30,10,47,13.60
2016,04,30,10,48,13.60
2016,04,30,10,49,13.70
2016,04,30,10,50,13.70
2016,04,30,10,51,13.70
2016,04,30,10,52,13.70
2016,04,30,10,53,13.70
2016,04,30,10,54,13.70
2016,04,30,10,55,13.70
2016,04,30,10,56,13.70
2016,04,30,10,57,13.80
2016,04,30,10,58,13.90
2016,04,30,10,59,14.00
2016,04,30,11,00,14.00
2016,04,30,11,01,14.00
2016,04,30,11,02,14.10
2016,04,30,11,03,14.10
2016,04,30,11,04,14.10
2016,04,30,11,05,14.20
2016,04,30,11,06,14.20
2016,04,30,11,07,14.20
2016,04,30,11,08,14.20
2016,04,30,11,09,14.20
2016,04,30,11,10,14.30
2016,04,30,11,11,14.30
2016,04,30,11,12,14.40
2016,04,30,11,13,14.50
2016,04,30,11,14,14.40
2016,04,30,11,15,14.40
2016,04,30,11,16,14.40
2016,04,30,11,17,14.30
2016,04,30,11,18,14.30
2016,04,30,11,19,14.30
2016,04,30,11,20,14.30
2016,04,30,11,21,14.30
2016,04,30,11,22,14.30
2016,04,30,11,23,14.30
2016,04,30,11,24,14.30
2016,04,30,11,25,14.40
2016,04,30,11,26,14.30
2016,04,30,11,27,14.30
2016,04,30,11,28,14.30
2016,04,30,11,29,14.30
2016,04,30,11,30,14.20
2016,04,30,11,31,14.10
2016,04,30,11,32,14.10
2016,04,30,11,33,14.10
2016,04,30,11,34,14.10
2016,04,30,11,35,14.10
2016,04,30,11,36,14.10
2016,04,30,11,37,14.10
2016,04,30,11,38,14.10
2016,04,30,11,39,14.20
2016,04,30,11,40,14.20
2016,04,30,11,41,14.10
2016,04,30,11,42,14.10
2016,04,30,11,43,14.10
2016,04,30,11,44,14.00
2016,04,30,11,45,14.00
2016,04,30,11,46,14.00
2016,04,30,11,47,14.00
2016,04,30,11,48,14.10
2016,04,30,11,49,14.10
2016,04,30,11,50,14.10
2016,04,30,11,51,14.10
2016,04,30,11,52,14.00
2016,04,30,11,53,14.00
2016,04,30,11,54,13.90
2016,04,30,11,55,13.90
2016,04,30,11,56,13.90
2016,04,30,11,57,14.00
2016,04,30,11,58,14.00
2016,04,30,11,59,14.10
2016,04,30,12,00,14.10
2016,04,30,12,01,14.00
2016,04,30,12,02,14.00
2016,04,30,12,03,13.90
2016,04,30,12,04,13.90
2016,04,30,12,05,14.00
2016,04,30,12,06,14.10
2016,04,30,12,07,14.10
2016,04,30,12,08,14.20
2016,04,30,12,09,14.20
2016,04,30,12,10,14.20
2016,04,30,12,11,14.30
2016,04,30,12,12,14.30
2016,04,30,12,13,14.20
2016,04,30,12,14,14.20
2016,04,30,12,15,14.20
2016,04,30,12,16,14.30
2016,04,30,12,17,14.40
2016,04,30,12,18,14.50
2016,04,30,12,19,14.60
2016,04,30,12,20,14.70
2016,04,30,12,21,14.80
2016,04,30,12,22,14.80
2016,04,30,12,23,14.80
2016,04,30,12,24,14.90
2016,04,30,12,25,14.90
2016,04,30,12,26,15.00
2016,04,30,12,27,15.10
2016,04,30,12,28,15.00
2016,04,30,12,29,14.90
2016,04,30,12,30,14.80
2016,04,30,12,31,14.60
2016,04,30,12,32,14.50
2016,04,30,12,33,14.40
2016,04,30,12,34,14.40
2016,04,30,12,35,14.50
2016,04,30,12,36,14.50
2016,04,30,12,37,14.60
2016,04,30,12,38,14.70
2016,04,30,12,39,14.60
2016,04,30,12,40,14.50
2016,04,30,12,41,14.30
2016,04,30,12,42,14.20
2016,04,30,12,43,14.00
2016,04,30,12,44,13.90
2016,04,30,12,45,13.80
2016,04,30,12,46,13.80
2016,04,30,12,47,13.70
2016,04,30,12,48,13.70
2016,04,30,12,49,13.80
2016,04,30,12,50,13.90
2016,04,30,12,51,14.00
2016,04,30,12,52,14.10
2016,04,30,12,53,14.20
2016,04,30,12,54,14.20
2016,04,30,12,55,14.20
2016,04,30,12,56,14.20
2016,04,30,12,57,14.30
2016,04,30,12,58,14.40
2016,04,30,12,59,14.60
2016,04,30,13,00,14.70
2016,04,30,13,01,14.80
2016,04,30,13,02,15.00
2016,04,30,13,03,15.20
2016,04,30,13,04,15.30
2016,04,30,13,05,15.40
2016,04,30,13,06,15.50
2016,04,30,13,07,15.60
2016,04,30,13,08,15.70
2016,04,30,13,09,15.70
2016,04,30,13,10,15.70
2016,04,30,13,11,15.70
2016,04,30,13,12,15.70
2016,04,30,13,13,15.70
2016,04,30,13,14,15.70
2016,04,30,13,15,15.60
2016,04,30,13,16,15.50
2016,04,30,13,17,15.40
2016,04,30,13,18,15.40
2016,04,30,13,19,15.40
2016,04,30,13,20,15.40
2016,04,30,13,21,15.50
2016,04,30,13,22,15.50
2016,04,30,13,23,15.60
2016,04,30,13,24,15.70
2016,04,30,13,25,15.80
2016,04,30,13,26,15.90
2016,04,30,13,27,15.90
2016,04,30,13,28,16.00
2016,04,30,13,29,16.10
2016,04,30,13,30,16.10
2016,04,30,13,31,16.10
2016,04,30,13,32,16.20
2016,04,30,13,33,16.30
2016,04,30,13,34,16.40
2016,04,30,13,35,16.50
2016,04,30,13,36,16.60
2016,04,30,13,37,16.50
2016,04,30,13,38,16.50
2016,04,30,13,39,16.50
2016,04,30,13,40,16.50
2016,04,30,13,41,16.40
2016,04,30,13,42,16.40
2016,04,30,13,43,16.40
2016,04,30,13,44,16.40
2016,04,30,13,45,16.40
2016,04,30,13,46,16.40
2016,04,30,13,47,16.30
2016,04,30,13,48,16.30
2016,04,30,13,49,16.40
2016,04,30,13,50,16.40
2016,04,30,13,51,16.50
2016,04,30,13,52,16.50
2016,04,30,13,53,16.50
2016,04,30,13,54,16.50
2016,04,30,13,55,16.50
2016,04,30,13,56,16.60
2016,04,30,13,57,16.70
2016,04,30,13,58,16.80
2016,04,30,13,59,16.90
2016,04,30,14,00,17.00
2016,04,30,14,01,17.00
2016,04,30,14,02,17.10
2016,04,30,14,03,17.10
2016,04,30,14,04,17.20
2016,04,30,14,05,17.20
2016,04,30,14,06,17.20
2016,04,30,14,07,17.20
2016,04,30,14,08,17.10
2016,04,30,14,09,17.10
2016,04,30,14,10,17.10
2016,04,30,14,11,17.10
2016,04,30,14,12,17.10
2016,04,30,14,13,17.00
2016,04,30,14,14,16.80
2016,04,30,14,15,16.70
2016,04,30,14,16,16.70
2016,04,30,14,17,16.60
2016,04,30,14,18,16.50
2016,04,30,14,19,16.50
2016,04,30,14,20,16.40
2016,04,30,14,21,16.40
2016,04,30,14,22,16.40
2016,04,30,14,23,16.40
2016,04,30,14,24,16.50
2016,04,30,14,25,16.60
2016,04,30,14,26,16.60
2016,04,30,14,27,16.60
2016,04,30,14,28,16.70
2016,04,30,14,29,16.70
2016,04,30,14,30,16.80
2016,04,30,14,31,16.90
2016,04,30,14,32,16.90
2016,04,30,14,33,16.90
2016,04,30,14,34,16.80
2016,04,30,14,35,16.80
2016,04,30,14,36,16.70
2016,04,30,14,37,16.80
2016,04,30,14,38,16.90
2016,04,30,14,39,16.90
2016,04,30,14,40,16.90
2016,04,30,14,41,16.80
2016,04,30,14,42,16.90
2016,04,30,14,43,17.00
2016,04,30,14,44,17.10
2016,04,30,14,45,17.10
2016,04,30,14,46,17.00
2016,04,30,14,47,17.00
2016,04,30,14,48,17.00
2016,04,30,14,49,17.00
2016,04,30,14,50,17.00
2016,04,30,14,51,17.00
2016,04,30,14,52,17.10
2016,04,30,14,53,17.10
2016,04,30,14,54,17.20
2016,04,30,14,55,17.40
2016,04,30,14,56,17.60
2016,04,30,14,57,17.70
2016,04,30,14,58,17.70
2016,04,30,14,59,17.60
2016,04,30,15,00,17.50
2016,04,30,15,01,17.40
2016,04,30,15,02,17.40
2016,04,30,15,03,17.40
2016,04,30,15,04,17.40
2016,04,30,15,05,17.40
2016,04,30,15,06,17.50
2016,04,30,15,07,17.60
2016,04,30,15,08,17.70
2016,04,30,15,09,17.80
2016,04,30,15,10,17.90
2016,04,30,15,11,18.00
2016,04,30,15,12,18.00
2016,04,30,15,13,18.00
2016,04,30,15,14,18.10
2016,04,30,15,15,18.10
2016,04,30,15,16,18.00
2016,04,30,15,17,18.00
2016,04,30,15,18,18.00
2016,04,30,15,19,18.00
2016,04,30,15,20,17.90
2016,04,30,15,21,17.90
2016,04,30,15,22,17.80
2016,04,30,15,23,17.90
2016,04,30,15,24,17.90
2016,04,30,15,25,18.00
2016,04,30,15,26,18.10
2016,04,30,15,27,18.20
2016,04,30,15,28,18.30
2016,04,30,15,29,18.40
2016,04,30,15,30,18.50
2016,04,30,15,31,18.50
2016,04,30,15,32,18.40
2016,04,30,15,33,18.30
2016,04,30,15,34,18.20
2016,04,30,15,35,18.10
2016,04,30,15,36,18.00
2016,04,30,15,37,17.90
2016,04,30,15,38,18.00
2016,04,30,15,39,18.10
2016,04,30,15,40,18.30
2016,04,30,15,41,18.40
2016,04,30,15,42,18.40
2016,04,30,15,43,18.60
2016,04,30,15,44,18.70
2016,04,30,15,45,18.70
2016,04,30,15,46,18.80
2016,04,30,15,47,18.90
2016,04,30,15,48,19.00
2016,04,30,15,49,19.10
2016,04,30,15,50,19.10
2016,04,30,15,51,19.10
2016,04,30,15,52,18.90
2016,04,30,15,53,18.80
2016,04,30,15,54,18.80
2016,04,30,15,55,18.70
2016,04,30,15,56,18.70
2016,04,30,15,57,18.70
2016,04,30,15,58,18.70
2016,04,30,15,59,18.70
2016,04,30,16,00,18.70
2016,04,30,16,01,18.80
2016,04,30,16,02,18.80
2016,04,30,16,03,18.80
2016,04,30,16,04,18.80
2016,04,30,16,05,18.80
2016,04,30,16,06,18.80
2016,04,30,16,07,18.70
2016,04,30,16,08,18.60
2016,04,30,16,09,18.40
2016,04,30,16,10,18.40
2016,04,30,16,11,18.30
2016,04,30,16,12,18.40
2016,04,30,16,13,18.40
2016,04,30,16,14,18.40
2016,04,30,16,15,18.40
2016,04,30,16,16,18.30
2016,04,30,16,17,18.30
2016,04,30,16,18,18.20
2016,04,30,16,19,18.10
2016,04,30,16,20,18.00
2016,04,30,16,21,18.00
2016,04,30,16,22,17.90
2016,04,30,16,23,17.80
2016,04,30,16,24,17.90
2016,04,30,16,25,17.90
2016,04,30,16,26,18.00
2016,04,30,16,27,18.10
2016,04,30,16,28,18.20
2016,04,30,16,29,18.30
2016,04,30,16,30,18.30
2016,04,30,16,31,18.40
2016,04,30,16,32,18.40
2016,04,30,16,33,18.50
2016,04,30,16,34,18.50
2016,04,30,16,35,18.50
2016,04,30,16,36,18.50
2016,04,30,16,37,18.50
2016,04,30,16,38,18.30
2016,04,30,16,39,18.20
2016,04,30,16,40,18.10
2016,04,30,16,41,18.10
2016,04,30,16,42,18.00
2016,04,30,16,43,18.00
2016,04,30,16,44,17.90
2016,04,30,16,45,17.80
2016,04,30,16,46,17.80
2016,04,30,16,47,17.80
2016,04,30,16,48,17.80
2016,04,30,16,49,17.80
2016,04,30,16,50,17.80
2016,04,30,16,51,17.70
2016,04,30,16,52,17.70
2016,04,30,16,53,17.70
2016,04,30,16,54,17.80
2016,04,30,16,55,17.80
2016,04,30,16,56,17.80
2016,04,30,16,57,17.80
2016,04,30,16,58,17.80
2016,04,30,16,59,17.80
2016,04,30,17,00,17.80
2016,04,30,17,01,17.80
2016,04,30,17,02,17.80
2016,04,30,17,03,17.80
2016,04,30,17,04,17.80
2016,04,30,17,05,17.80
2016,04,30,17,06,17.90
2016,04,30,17,07,18.00
2016,04,30,17,08,18.10
2016,04,30,17,09,18.20
2016,04,30,17,10,18.30
2016,04,30,17,11,18.30
2016,04,30,17,12,18.40
2016,04,30,17,13,18.40
2016,04,30,17,14,18.40
2016,04,30,17,15,18.40
2016,04,30,17,16,18.40
2016,04,30,17,17,18.30
2016,04,30,17,18,18.30
2016,04,30,17,19,18.30
2016,04,30,17,20,18.30
2016,04,30,17,21,18.30
2016,04,30,17,22,18.30
2016,04,30,17,23,18.30
2016,04,30,17,24,18.30
2016,04,30,17,25,18.30
2016,04,30,17,26,18.30
2016,04,30,17,27,18.30
2016,04,30,17,28,18.40
2016,04,30,17,29,18.40
2016,04,30,17,30,18.50
2016,04,30,17,31,18.50
2016,04,30,17,32,18.50
2016,04,30,17,33,18.40
2016,04,30,17,34,18.40
2016,04,30,17,35,18.40
2016,04,30,17,36,18.40
2016,04,30,17,37,18.50
2016,04,30,17,38,18.50
2016,04,30,17,39,18.50
2016,04,30,17,40,18.50